Flag for Canada Weather past 2 weeks in Glace Bay, Nova Scotia, Canada

Now
16 °F

Scattered clouds.


Feels Like: -2 °F
Forecast: 12 / 18 °F
Wind: 21 mph from Northwest

Location: Sydney

Current Time: Jan 26, 2015 at 12:57:14 PM

Latest Report: Jan 26, 2015 at 12:00 PM


Visibility: 15 mi

Pressure: 30.07 "Hg

Humidity: 57%

Dew point: 3 °F

Location of Glace BayLocation

Historic Weather in Glace Bay — Graph

°F

Glace Bay temperature yesterday

Maximum temperature yesterday: 48 °F (at 3:00 AM)
Minimum temperature yesterday: 27 °F (at 10:00 PM)
Average temperature yesterday: 37 °F

Past Weeks' High & Low Weather Summary

 TemperatureHumidityPressure
High48 °F (Jan 25, 3:00 AM)100% (Jan 12, 1:00 PM)30.57 "Hg (Jan 12, 1:00 PM)
Low5 °F (Jan 18, 7:00 AM)53% (Jan 11, 1:00 PM)28.54 "Hg (Jan 25, 6:00 AM)
Average24 °F82%29.93 "Hg
* Reported Jan 11 11:00 AM — Jan 26 11:00 AM, Glace Bay, Weather by CustomWeather, © 2014

Note: Actual official high and low records may vary slightly from our data, if they occured in-between our weather recording intervals... More about our weather records

Advertising

Glace Bay weather history for previous 24 hours

 ConditionsComfort  
Time TempWeatherWind HumidityBarometerVisibility
11:00 AM
Jan 26
16 °FSnow flurries. Scattered clouds.22 mph57%30.04 "Hg10 mi
10:00 AM14 °FSnow flurries. Scattered clouds.14 mph62%30.01 "Hg10 mi
9:00 AM14 °FSnow flurries. Scattered clouds.16 mph62%29.96 "Hg10 mi
8:00 AM12 °FSnow flurries. Scattered clouds.15 mph67%29.90 "Hg10 mi
7:00 AM14 °FSnow flurries. Passing clouds.21 mph67%29.85 "Hg10 mi
6:00 AM14 °FPassing clouds.20 mph73%29.78 "Hg15 mi
5:00 AM16 °FPassing clouds.20 mph62%29.74 "Hg15 mi
4:00 AM16 °FPassing clouds.23 mph67%29.69 "Hg15 mi
3:00 AM18 °FPassing clouds.22 mph68%29.65 "Hg15 mi
2:50 AM18 °FOvercast.24 mph62%29.65 "Hg15 mi
2:00 AM19 °FLight snow. Overcast.28 mph68%29.61 "Hg15 mi
1:00 AM23 °FLight snow. Passing clouds.25 mph68%29.54 "Hg15 mi
12:00 AM25 °FLight snow. Passing clouds.22 mph69%29.51 "Hg15 mi
11:00 PM
Jan 25
27 °FLight snow. Passing clouds.24 mph69%29.45 "Hg15 mi
10:00 PM27 °FPassing clouds.16 mph64%29.41 "Hg15 mi
9:00 PM30 °FPartly cloudy.20 mph59%29.36 "Hg15 mi
8:00 PM30 °FLight snow. Overcast.21 mph86%29.33 "Hg5 mi
7:00 PM34 °FPartly cloudy.12 mph75%29.31 "Hg15 mi
6:00 PM32 °FPassing clouds.8 mph75%29.30 "Hg15 mi
5:00 PM34 °FPassing clouds.16 mph70%29.28 "Hg15 mi
4:00 PM36 °FPartly sunny.14 mph70%29.26 "Hg15 mi
3:00 PM34 °FPartly sunny.22 mph75%29.23 "Hg15 mi
2:00 PM34 °FPartly sunny.23 mph75%29.20 "Hg15 mi
1:00 PM32 °FPartly sunny.28 mph80%29.18 "Hg15 mi
12:00 PM34 °FPartly sunny.29 mph75%29.13 "Hg15 mi
Weather by CustomWeather, © 2014

See weather overviewHow to use our weather pages